Back to catalog

HAINAN-1 01

AliveSciencePO
NORAD 51825·PAYLOAD·🇨🇳 China
This satellite name has not been confirmed by official sources yet.

Launched Feb 27, 2022 from Wenchang Space Launch Site

Loading…

Next Passes (next 24 hours)

TLE

FreshSource: Space-Track

Epoch: Sep 11, 2026, 23:38 UTC

1 51825U 22019B   26254.98526623  .05925279  24873-5  55233-3 0  9994
2 51825  97.3166 354.2449 0012094 269.7432  90.2481 16.38561643253563

Track HAINAN-1 01 in real time with AllMySat

Download on the App Store